Regional Weather Roundup
Issued by NWS Green Bay, WI

Home | Current Version | Previous Version | Graphics & Text | Print | Product List | Glossary Off
Versions: 1 2 3 4 5 6 7 8 9 10 11 12 13 14 15 16 17 18 19 20 21 22 23 24 25 26 27 28 29 30 31 32 33 34 35 36 37 38 39 40 41 42 43 44 45 46 47 48 49 50

000
ASUS43 KGRB 220911
RWRGRB

NORTH-CENTRAL AND NORTHEAST WISCONSIN REGIONAL WEATHER ROUNDUP
NATIONAL WEATHER SERVICE GREEN BAY WI
400 AM CDT SAT APR 22 2017

WIZ005-009-010>012-018-019-221000-
NORTH CENTRAL WISCONSIN

CITY           SKY/WX    TMP DP  RH WIND       PRES   REMARKS
IRONWOOD       CLEAR     28  26  92 CALM      30.19S
MANITOWISH WTR CLEAR     27  27 100 CALM      30.20S
ARBOR VITAE    CLEAR     31  25  78 CALM      30.20S
EAGLE RIVER    CLEAR     27  27 100 CALM      30.20S
LAND O LAKES   CLEAR     26  26  99 CALM      30.21S
RHINELANDER    CLEAR     29  23  78 CALM      30.21R
PHILLIPS       CLEAR     28  28  96 CALM      30.21S
ANTIGO         CLEAR     28  27  96 CALM      30.21R
TOMAHAWK       CLEAR     26  24  92 CALM      30.22R
MERRILL        CLEAR     29  28  95 CALM      30.22R
$$

WIZ013-073-221000-
NORTHEAST WISCONSIN

CITY           SKY/WX    TMP DP  RH WIND       PRES   REMARKS
IRON MOUNTAIN  CLEAR     26  21  81 NW5       30.18R
MARINETTE      CLEAR     32  30  92 NW3       30.21S
OCONTO         CLEAR     29  28  95 CALM      30.20S
$$

WIZ017-030-035>037-045-221000-
CENTRAL WISCONSIN

CITY           SKY/WX    TMP DP  RH WIND       PRES   REMARKS
MEDFORD        CLEAR     30  27  88 CALM      30.21R
WAUSAU         CLEAR     33  26  75 NW3       30.20R
MOSINEE        CLEAR     37  19  48 CALM      30.22R
MARSHFIELD     CLEAR     36  20  52 CALM      30.20R
WISC RAPIDS    CLEAR     32  27  81 CALM      30.21S
STEVENS POINT  CLEAR     28  27  95 CALM      30.21S
WAUPACA        CLEAR     36  33  90 CALM      30.21S
SHAWANO        CLEAR     34  32  92 CALM      30.21S
CLINTONVILLE   CLEAR     32  32 100 CALM      30.21S
WAUTOMA        CLEAR     30  27  88 CALM      30.22R
$$

WIZ038-039-048-051-221000-
FOX VALLEY

CITY           SKY/WX    TMP DP  RH WIND       PRES   REMARKS
NWS GREEN BAY  CLEAR     37  34  89 W5        30.20S
APPLETON       CLEAR     34  28  80 CALM      30.19R
OSHKOSH        CLEAR     40  26  57 CALM      30.20S
FOND DU LAC    CLEAR     35  27  72 CALM      30.21R
$$

WIZ022-050-052-221000-
EAST CENTRAL WISCONSIN

CITY           SKY/WX    TMP DP  RH WIND       PRES   REMARKS
EPHRAIM        FAIR      38  31  77 W7        30.18S
WASHINGTON ISL FAIR      27  24  90 CALM      30.18S
STURGEON BAY   CLEAR     36  33  89 NW5         N/A
MANITOWOC      CLEAR     32  29  88 CALM      30.21R
SHEBOYGAN      CLEAR     31  28  89 CALM      30.20S
$$

LMZ563-521-522-541>543-221000-
LAKESHORE

STATION/POSITION TIME  TEMP    WIND        PRES    VSBY  WAVE
                       AIR SEA DIR/SP/G                  HT/PER
                 (UTC) (F)     (DEG/KT/KT) (MB)    (MI)  (FT/S)
SHEBOYGAN LKSHOR 0900   43     350/  4/  5 1022.9R
KEWAUNEE LKSHORE 0848   35     310/  4/  6 1022.1R
NORTHPORT PIER   0840   42     280/  4/  8 1022.0S
N MID LAKE BUOY  0850   38 37  290/  6/  6 1023.3R         0
SISTER BAY LKSHO 0806   38      CALM  /  3   N/A
CHAMBERS ISLAND  0840   31     210/  3/  4 1021.7F
MENOMINEE LKSHOR 0848   39     250/  7/  8 1021.5F
$$




USA.gov is the U.S. government's official web portal to all federal, state and local government web resources and services.